Location: Vsetin
(49.3330°N, 18.0000°E)
Time: 00:07:40
(UTC+01:00)

ISS - Visible Passes

Search period start: 21 January 2021 00:00
Search period end: 31 January 2021 00:00
Orbit: 418 x 419 km, 51.6° (Epoch: 21 January)

Date Brightness Start Highest point End Pass type
(mag) Time Alt. Az. Time Alt. Az. Time Alt. Az.
21 Jan -2.7 17:55:26 10° SSW 17:58:27 31° SE 17:59:24 26° ESE visible
21 Jan -0.6 19:31:42 10° WSW 19:32:21 15° W 19:32:21 15° W visible
22 Jan -2.0 17:08:14 10° SSW 17:10:51 21° SE 17:13:28 10° E visible
22 Jan -3.2 18:43:56 10° WSW 18:46:41 57° WSW 18:46:41 57° WSW visible
23 Jan -3.6 17:56:15 10° WSW 17:59:34 63° SSE 18:00:58 31° E visible
23 Jan -0.7 19:33:06 10° W 19:33:55 16° W 19:33:55 16° W visible
24 Jan -3.1 17:08:38 10° SW 17:11:52 44° SSE 17:15:06 10° ENE visible
24 Jan -3.2 18:45:16 10° W 18:48:08 55° NW 18:48:08 55° NW visible
25 Jan -3.8 17:57:26 10° WSW 18:00:48 76° NNW 18:02:20 30° ENE visible
25 Jan -0.7 19:34:28 10° WNW 19:35:17 16° WNW 19:35:17 16° WNW visible
26 Jan -3.7 17:09:38 10° WSW 17:13:00 85° SSE 17:16:22 10° ENE visible
26 Jan -3.0 18:46:38 10° W 18:49:27 49° NW 18:49:27 49° NW visible
27 Jan -3.5 17:58:45 10° W 18:02:05 57° N 18:03:37 28° ENE visible
27 Jan -0.8 19:35:43 10° WNW 19:36:33 16° WNW 19:36:33 16° WNW visible
28 Jan -3.6 17:10:52 10° W 17:14:13 64° N 17:17:35 10° ENE visible
28 Jan -3.2 18:47:54 10° WNW 18:50:43 53° NW 18:50:43 53° NW visible
29 Jan -3.5 18:00:02 10° WNW 18:03:22 57° N 18:04:54 28° ENE visible
29 Jan -0.9 19:36:53 10° WNW 19:37:51 18° WNW 19:37:51 18° WNW visible
30 Jan -3.4 17:12:09 10° W 17:15:28 55° N 17:18:47 10° E visible
30 Jan -3.5 18:49:03 10° WNW 18:52:04 69° WNW 18:52:04 69° WNW visible
